| time (UTC) | temp F | wind direction | speed knots | gust knots | rain 1hr in | rain 24hr in | rain mn in | humidity % | barometer mb |
| 20260506231639 | 71 | 239 | 20.9 | 29.5 | 0.00 | 0.00 | 0.00 | 44 | 1011.5 |
| 20260506230038 | 71 | 231 | 21.7 | 27.8 | 0.00 | 0.00 | 0.00 | 44 | 1011.6 |
| 20260506224538 | 73 | 241 | 20.0 | 29.5 | 0.00 | 0.00 | 0.00 | 39 | 1011.9 |
| 20260506223038 | 72 | 243 | 22.6 | 29.5 | 0.00 | 0.00 | 0.00 | 39 | 1011.8 |
| 20260506221537 | 72 | 246 | 25.2 | 32.2 | 0.00 | 0.00 | 0.00 | 38 | 1011.8 |
| 20260506220038 | 73 | 232 | 21.7 | 28.7 | 0.00 | 0.00 | 0.00 | 39 | 1012.0 |
| 20260506214534 | 72 | 221 | 22.6 | 29.5 | 0.00 | 0.00 | 0.00 | 42 | 1011.9 |
| 20260506213032 | 72 | 245 | 20.9 | 30.4 | 0.00 | 0.00 | 0.00 | 44 | 1011.9 |
| 20260506211532 | 72 | 248 | 20.9 | 33.0 | 0.00 | 0.00 | 0.00 | 45 | 1011.8 |
| 20260506210032 | 71 | 239 | 25.2 | 33.0 | 0.00 | 0.00 | 0.00 | 46 | 1011.9 |
| 20260506204529 | 71 | 238 | 20.0 | 28.7 | 0.00 | 0.00 | 0.00 | 47 | 1012.0 |
| 20260506203030 | 70 | 248 | 21.7 | 31.3 | 0.00 | 0.00 | 0.00 | 49 | 1011.9 |
| 20260506201540 | 69 | 253 | 24.3 | 33.0 | 0.00 | 0.00 | 0.00 | 50 | 1011.4 |
| 20260506200028 | 69 | 234 | 25.2 | 33.0 | 0.00 | 0.00 | 0.00 | 52 | 1011.7 |
| 20260506194527 | 69 | 246 | 18.2 | 33.9 | 0.00 | 0.00 | 0.00 | 52 | 1011.9 |
| 20260506193026 | 69 | 249 | 24.3 | 33.9 | 0.00 | 0.00 | 0.00 | 49 | 1011.9 |
| 20260506191524 | 69 | 233 | 25.2 | 31.3 | 0.00 | 0.00 | 0.00 | 50 | 1012.2 |
| 20260506190023 | 69 | 232 | 20.0 | 27.8 | 0.00 | 0.00 | 0.00 | 51 | 1012.3 |
| 20260506184520 | 68 | 235 | 18.2 | 26.1 | 0.00 | 0.00 | 0.00 | 54 | 1012.4 |
| 20260506183018 | 67 | 234 | 20.0 | 29.5 | 0.00 | 0.00 | 0.00 | 57 | 1012.6 |
| 20260506181518 | 66 | 232 | 23.5 | 32.2 | 0.00 | 0.00 | 0.00 | 55 | 1012.3 |
| 20260506180016 | 66 | 240 | 18.2 | 26.9 | 0.00 | 0.00 | 0.00 | 59 | 1012.6 |
| 20260506174513 | 65 | 225 | 20.9 | 26.9 | 0.00 | 0.00 | 0.00 | 58 | 1012.7 |
| 20260506173010 | 64 | 236 | 20.9 | 29.5 | 0.00 | 0.00 | 0.00 | 60 | 1012.4 |
| 20260506171507 | 64 | 246 | 23.5 | 31.3 | 0.00 | 0.00 | 0.00 | 61 | 1012.3 |
| 20260506170005 | 63 | 253 | 20.9 | 29.5 | 0.00 | 0.00 | 0.00 | 63 | 1012.4 |
| 20260506164507 | 62 | 236 | 25.2 | 32.2 | 0.00 | 0.00 | 0.00 | 64 | 1012.4 |
| 20260506163005 | 62 | 252 | 23.5 | 31.3 | 0.00 | 0.00 | 0.00 | 65 | 1012.5 |
| 20260506161500 | 62 | 239 | 21.7 | 33.0 | 0.00 | 0.00 | 0.00 | 66 | 1012.8 |
| 20260506154602 | 60 | 264 | 20.0 | 30.4 | 0.00 | 0.00 | 0.00 | 67 | 1012.7 |
| 20260506153055 | 60 | 242 | 23.5 | 27.8 | 0.00 | 0.00 | 0.00 | 69 | 1012.4 |
| 20260506151553 | 59 | 231 | 24.3 | 31.3 | 0.00 | 0.00 | 0.00 | 70 | 1012.6 |
| 20260506150052 | 58 | 237 | 24.3 | 33.0 | 0.00 | 0.00 | 0.00 | 71 | 1012.4 |
| 20260506144548 | 58 | 240 | 22.6 | 30.4 | 0.00 | 0.00 | 0.00 | 72 | 1012.4 |
| 20260506143047 | 57 | 229 | 21.7 | 29.5 | 0.00 | 0.00 | 0.00 | 74 | 1012.3 |
| 20260506141550 | 57 | 230 | 20.0 | 29.5 | 0.00 | 0.00 | 0.00 | 75 | 1012.4 |
| 20260506140052 | 56 | 244 | 21.7 | 29.5 | 0.00 | 0.00 | 0.00 | 76 | 1012.2 |
| 20260506134540 | 56 | 248 | 19.1 | 27.8 | 0.00 | 0.00 | 0.00 | 78 | 1012.2 |
| 20260506133037 | 55 | 228 | 17.4 | 25.2 | 0.00 | 0.00 | 0.00 | 80 | 1011.9 |
| 20260506131536 | 53 | 234 | 16.5 | 20.0 | 0.00 | 0.00 | 0.00 | 82 | 1012.0 |
| 20260506130035 | 53 | 227 | 14.8 | 20.9 | 0.00 | 0.00 | 0.00 | 82 | 1011.7 |
| 20260506124532 | 53 | 227 | 15.6 | 20.9 | 0.00 | 0.00 | 0.00 | 83 | 1011.5 |
| 20260506123032 | 53 | 238 | 16.5 | 22.6 | 0.00 | 0.00 | 0.00 | 82 | 1011.3 |
| 20260506121530 | 53 | 225 | 17.4 | 22.6 | 0.00 | 0.00 | 0.00 | 82 | 1011.3 |
| 20260506120033 | 54 | 213 | 19.1 | 26.1 | 0.00 | 0.00 | 0.00 | 82 | 1011.1 |
| 20260506114527 | 53 | 225 | 16.5 | 24.3 | 0.00 | 0.00 | 0.00 | 82 | 1010.8 |
| 20260506113027 | 53 | 221 | 16.5 | 21.7 | 0.00 | 0.00 | 0.00 | 82 | 1010.9 |
| 20260506111528 | 53 | 236 | 14.8 | 22.6 | 0.00 | 0.00 | 0.00 | 83 | 1010.8 |
| 20260506110025 | 53 | 219 | 16.5 | 20.9 | 0.00 | 0.00 | 0.00 | 82 | 1010.7 |
| 20260506104523 | 53 | 229 | 16.5 | 20.0 | 0.00 | 0.00 | 0.00 | 83 | 1010.7 |
| 20260506103023 | 53 | 221 | 14.8 | 19.1 | 0.00 | 0.00 | 0.00 | 84 | 1010.8 |
| 20260506101523 | 53 | 213 | 15.6 | 20.0 | 0.00 | 0.00 | 0.00 | 84 | 1010.7 |
| 20260506100020 | 53 | 226 | 15.6 | 20.0 | 0.00 | 0.00 | 0.00 | 84 | 1010.7 |
| 20260506094519 | 53 | 214 | 13.9 | 18.2 | 0.00 | 0.00 | 0.00 | 85 | 1010.8 |
| 20260506093028 | 52 | 226 | 13.9 | 17.4 | 0.00 | 0.00 | 0.00 | 85 | 1010.6 |
| 20260506091515 | 53 | 234 | 13.0 | 18.2 | 0.00 | 0.00 | 0.00 | 85 | 1010.5 |
| 20260506090011 | 53 | 240 | 13.0 | 18.2 | 0.00 | 0.00 | 0.00 | 84 | 1010.4 |
| 20260506084513 | 53 | 210 | 12.2 | 19.1 | 0.00 | 0.00 | 0.00 | 84 | 1010.4 |
| 20260506083008 | 53 | 219 | 12.2 | 16.5 | 0.00 | 0.00 | 0.00 | 84 | 1010.4 |
| 20260506081508 | 54 | 222 | 13.0 | 18.2 | 0.00 | 0.00 | 0.00 | 83 | 1010.3 |
| 20260506073003 | 54 | 226 | 13.9 | 18.2 | 0.00 | 0.00 | 0.00 | 82 | 1009.7 |
| 20260506071558 | 54 | 216 | 13.0 | 17.4 | 0.00 | 0.00 | 0.00 | 81 | 1009.7 |
| 20260506061601 | 55 | 215 | 9.6 | 14.8 | 0.00 | 0.00 | 0.00 | 79 | 1009.4 |
| 20260506044554 | 59 | 229 | 7.8 | 11.3 | 0.00 | 0.00 | 0.00 | 72 | 1008.9 |
| 20260506043053 | 60 | 217 | 8.7 | 12.2 | 0.00 | 0.00 | 0.00 | 70 | 1008.8 |
| 20260506041604 | 61 | 213 | 8.7 | 12.2 | 0.00 | 0.00 | 0.00 | 67 | 1008.6 |
| 20260506040053 | 61 | 218 | 7.0 | 9.6 | 0.00 | 0.00 | 0.00 | 67 | 1008.5 |
| 20260506034548 | 62 | 223 | 9.6 | 11.3 | 0.00 | 0.00 | 0.00 | 65 | 1008.3 |
| 20260506033051 | 64 | 231 | 8.7 | 11.3 | 0.00 | 0.00 | 0.00 | 61 | 1008.2 |
| 20260506031548 | 65 | 227 | 7.8 | 12.2 | 0.00 | 0.00 | 0.00 | 59 | 1008.1 |
| 20260506030047 | 67 | 227 | 10.4 | 15.6 | 0.00 | 0.00 | 0.00 | 56 | 1008.0 |
| 20260506024547 | 69 | 230 | 10.4 | 13.9 | 0.00 | 0.00 | 0.00 | 53 | 1007.9 |
| 20260506023053 | 70 | 234 | 10.4 | 14.8 | 0.00 | 0.00 | 0.00 | 50 | 1007.7 |
| 20260506021545 | 72 | 239 | 10.4 | 14.8 | 0.00 | 0.00 | 0.00 | 47 | 1007.7 |
| 20260506020114 | 74 | 246 | 10.4 | 13.9 | 0.00 | 0.00 | 0.00 | 44 | 1007.6 |
| 20260506014545 | 75 | 213 | 9.6 | 13.0 | 0.00 | 0.00 | 0.00 | 43 | 1007.5 |
| 20260506013045 | 76 | 236 | 7.8 | 12.2 | 0.00 | 0.00 | 0.00 | 42 | 1007.3 |
| 20260506011548 | 77 | 259 | 7.0 | 10.4 | 0.00 | 0.00 | 0.00 | 39 | 1007.3 |
| 20260506010044 | 78 | 266 | 5.2 | 7.8 | 0.00 | 0.00 | 0.00 | 39 | 1007.2 |
| 20260506004544 | 79 | 274 | 4.3 | 7.0 | 0.00 | 0.00 | 0.00 | 37 | 1007.3 |
| 20260506003046 | 79 | 297 | 2.6 | 5.2 | 0.00 | 0.00 | 0.00 | 33 | 1007.3 |
| 20260506001548 | 79 | 248 | 2.6 | 6.1 | 0.00 | 0.00 | 0.00 | 38 | 1007.3 |
| 20260506000055 | 78 | 285 | 5.2 | 8.7 | 0.00 | 0.00 | 0.00 | 36 | 1007.4 |
| 20260505234543 | 78 | 304 | 6.1 | 11.3 | 0.00 | 0.00 | 0.00 | 39 | 1007.6 |
| 20260505233047 | 78 | 309 | 5.2 | 9.6 | 0.00 | 0.00 | 0.00 | 37 | 1007.7 |